Home   Weather   Jan Mayen   Past weeks

Flag for Norway Past Weather in Jan Mayen, Jan Mayen, Norway — Yesterday and Last 2 Weeks

Now
39 °F

Chilly.


Feels Like: 34 °F
Forecast: 36 / 38 °F
Wind: 7 mph from East

Location: Jan Mayen

Current Time: Apr 29, 2017 at 3:56:50 pm

Latest Report: Apr 29, 2017 at 3:00 pm


Visibility: N/A

Pressure: 30.25 "Hg

Humidity: 91%

Dew Point: 37 °F

Location of Jan MayenLocation

Past Weather in Jan Mayen — Graph

°F

Jan Mayen Temperature Yesterday

Maximum temperature yesterday: 36 °F (at 3:00 pm)
Minimum temperature yesterday: 34 °F (at 12:00 am)
Average temperature yesterday: 35 °F

High & Low Weather Summary for the Past Weeks

 TemperatureHumidityPressure
High39 °F (Apr 29, 1:00 pm)100% (Apr 18, 7:00 pm)30.39 "Hg (Apr 18, 7:00 pm)
Low18 °F (Apr 25, 4:00 am)61% (Apr 25, 2:00 pm)29.26 "Hg (Apr 20, 5:00 am)
Average30 °F85%30.04 "Hg
* Reported Apr 14 2:00 pm — Apr 29 2:00 pm, Jan Mayen, Weather by CustomWeather, © 2017

Note: Actual official high and low records may vary slightly from our data, if they occured in-between our weather recording intervals... More about our weather records

Advertising

Jan Mayen Weather History for the Previous 24 Hours

Scroll right to see more
 ConditionsComfort  
Time TempWeatherWind HumidityBarometerVisibility
2:00 pm
Sat, Apr 29
39 °FScattered clouds.5 mph91%30.24 "Hg12 mi
1:00 pm39 °FChilly.6 mph91%30.23 "HgN/A
12:00 pm38 °FChilly.6 mph89%30.21 "HgN/A
11:00 am38 °FPartly sunny.3 mph88%30.20 "Hg7 mi
10:00 am36 °FChilly.3 mph89%30.19 "HgN/A
9:00 am37 °FChilly.6 mph87%30.17 "HgN/A
8:00 am36 °FFog.7 mph92%30.15 "Hg5 mi
7:00 am35 °FChilly.6 mph96%30.13 "HgN/A
6:00 am35 °FChilly.8 mph93%30.11 "HgN/A
5:00 am35 °FChilly.8 mph93%30.10 "HgN/A
4:00 am36 °FChilly.8 mph92%30.09 "HgN/A
3:00 am35 °FChilly.8 mph92%30.07 "HgN/A
2:00 am35 °FFog.8 mph92%30.06 "Hg5 mi
1:00 am36 °FChilly.8 mph93%30.04 "HgN/A
12:00 am36 °FChilly.9 mph93%30.02 "HgN/A
11:00 pm
Fri, Apr 28
35 °FChilly.7 mph95%30.01 "HgN/A
10:00 pm35 °FChilly.8 mph92%30.00 "HgN/A
9:00 pm35 °FChilly.5 mph96%29.98 "HgN/A
8:00 pm36 °FLow clouds.7 mph93%29.97 "Hg7 mi
7:00 pm35 °FChilly.6 mph95%29.96 "HgN/A
6:00 pm36 °FChilly.9 mph95%29.96 "HgN/A
5:00 pm36 °FFog.8 mph95%29.94 "Hg6 mi
4:00 pm36 °FChilly.9 mph94%29.93 "HgN/A
3:00 pm36 °FChilly.8 mph95%29.93 "HgN/A
Weather by CustomWeather, © 2017

See weather overviewHow to use our weather pages